This is the latest recevied weather packets stored in our database for station/object KK7RJD. If no packets are shown the sender has not sent any weather packets the latest 10 day(s).
| Time | Temp. | Humidity | Pressure | Rain* | Wind** | Luminosity | Snow |
|---|---|---|---|---|---|---|---|
| 1777541509 | 0.56° C | 77% | 1022.6 hPa | 0 mm | - | 0 W/m² | - |
| 1777541205 | 0.56° C | 77% | 1022.7 hPa | 0 mm | - | 0 W/m² | - |
| 1777540901 | 0° C | 79% | 1022.6 hPa | 0 mm | - | 0 W/m² | - |
| 1777540599 | 0° C | 80% | 1022.7 hPa | 0 mm | - | 0 W/m² | - |
| 1777540296 | 0° C | 79% | 1022.4 hPa | 0 mm | - | 0 W/m² | - |
| 1777539992 | 0° C | 79% | 1022.5 hPa | 0 mm | - | 0 W/m² | - |
| 1777539688 | 0° C | 79% | 1022.6 hPa | 0 mm | - | 0 W/m² | - |
| 1777539384 | 0° C | 79% | 1022.5 hPa | 0 mm | - | 0 W/m² | - |
| 1777539080 | 0° C | 79% | 1022.7 hPa | 0 mm | - | 0 W/m² | - |
| 1777538777 | 0° C | 79% | 1022.7 hPa | 0 mm | - | 0 W/m² | - |
| 1777538472 | 0° C | 78% | 1022.6 hPa | 0 mm | - | 0 W/m² | - |
| 1777538168 | 0° C | 77% | 1022.8 hPa | 0 mm | - | 0 W/m² | - |
| 1777537864 | 0.56° C | 77% | 1022.6 hPa | 0 mm | - | 0 W/m² | - |
| 1777537560 | 0.56° C | 77% | 1022.7 hPa | 0 mm | - | 0 W/m² | - |
| 1777537256 | 0.56° C | 77% | 1022.7 hPa | 0 mm | - | 0 W/m² | - |
| 1777536952 | 0.56° C | 76% | 1022.8 hPa | 0 mm | - | 0 W/m² | - |
| 1777536650 | 1.11° C | 74% | 1022.8 hPa | 0 mm | - | 0 W/m² | - |
| 1777536346 | 1.11° C | 74% | 1023 hPa | 0 mm | - | 0 W/m² | - |
| 1777536043 | 1.11° C | 74% | 1023 hPa | 0 mm | - | 0 W/m² | - |
| 1777535738 | 1.11° C | 74% | 1022.8 hPa | 0 mm | - | 0 W/m² | - |
| 1777535436 | 1.11° C | 73% | 1023 hPa | 0 mm | - | 0 W/m² | - |
| 1777535133 | 1.11° C | 73% | 1023 hPa | 0 mm | - | 0 W/m² | - |
| 1777534829 | 1.67° C | 72% | 1023.1 hPa | 0 mm | - | 0 W/m² | - |
| 1777534526 | 1.67° C | 72% | 1023.1 hPa | 0 mm | - | 0 W/m² | - |
| 1777534224 | 1.11° C | 72% | 1023.1 hPa | 0 mm | - | 0 W/m² | - |
* Rain latest hour (hover to see other rain measurements)
** Current wind speed in m/s (hover to see current wind gust speed)